Powrót do katalogu

QIANFAN-46

AktywnyŁącznośćPO
NORAD 62247·PAYLOAD·🇨🇳 China

Wystrzelony Dec 5, 2024 z Taiyuan Satellite Launch Center

Loading…

Następne Przeloty (najbliższe 24 godziny)

TLE

ŚwieżeSource: Space-Track

Epoka: Sep 14, 2026, 13:08 UTC

1 62247U 24232L   26257.54784903  .00000092  00000-0  12375-3 0  9998
2 62247  89.0160  13.6104 0016285 120.0073 240.2696 13.51028811136455

Śledź QIANFAN-46 w czasie rzeczywistym z AllMySat

Download on the App Store